Weather History for KBDR - November, 2011

Change the Weather History Date:

Monday, November 7, 2011

  Actual Average Record
Temperature  
Mean Temperature 52 °F 48 °F  
Max Temperature 60 °F 56 °F 68 °F (1975)
Min Temperature 44 °F 40 °F 25 °F (1962)
Degree Days  
Heating Degree Days 13 17  
Month to date heating degree days 130 112  
Since 1 July heating degree days 402 502  
Cooling Degree Days 0 0  
Month to date cooling degree days 0 0  
Year to date cooling degree days 1110 825  
Growing Degree Days 2 (Base 50)    
Moisture  
Dew Point 42 °F    
Average Humidity 73    
Maximum Humidity 93    
Minimum Humidity 53    
Precipitation  
Precipitation 0.00 in 0.11 in 2.00 in (1963)
Month to date precipitation 0.00 0.75  
Year to date precipitation 50.98 36.77  
Snow  
Snow 0.00 in 0.00 in 6.00 in (2012)
Month to date snowfall 0.0 0.0  
Since 1 July snowfall 4.0 0.0  
Snow Depth 0.00 in    
Sea Level Pressure  
Sea Level Pressure 30.30 in    
Wind  
Wind Speed 6 mph (SW)    
Max Wind Speed 13 mph    
Max Gust Speed 16 mph    
Visibility 10 miles    
Events      
T = Trace of Precipitation, MM = Missing Value Source: NWS Daily Summary

Daily Weather History Graph

Daily Weather History Graph

Search for Another Location

Airport or City:

Trip Planner

Search our weather history database for the weather conditions in past years. The results will help you decide how hot, cold, wet, or windy it might be!

Date:

Astronomy

Nov. 07, 2011 Rise Set
Actual Time 6:30 AM EST 4:41 PM EST
Civil Twilight 6:01 AM EST 5:10 PM EST
Nautical Twilight 5:28 AM EST 5:43 PM EST
Astronomical Twilight 4:56 AM EST 6:15 PM EST
Moon 2:52 PM EST (11/7) 3:29 AM EST (11/7)
Length of Visible Light 11h 08m
Length of Day
10h 10m
Waxing Gibbous, 91% of the Moon is Illuminated
Nov 7
Waxing Gibbous
Nov 10
Full
Nov 18
Last Quarter
Nov 25
New
Dec 2
First Quarter

Hourly Weather History & Observations

Time (EST) Temp. Windchill Dew Point Humidity Pressure Visibility Wind Dir Wind Speed Gust Speed Precip Events Conditions
12:52 AM 45.0 °F 41.8 °F 37.0 °F 74% 30.37 in 10.0 mi West 5.8 mph - N/A   Clear
1:52 AM 46.9 °F - 36.0 °F 66% 30.36 in 10.0 mi WSW 5.8 mph - N/A   Clear
2:52 AM 45.0 °F 42.6 °F 37.0 °F 74% 30.35 in 10.0 mi WSW 4.6 mph - N/A   Clear
3:52 AM 44.1 °F 40.1 °F 37.0 °F 76% 30.35 in 10.0 mi West 6.9 mph - N/A   Clear
4:52 AM 44.6 °F 40.2 °F 37.4 °F 76% 30.35 in 10.0 mi West 8.1 mph - N/A   Clear
5:52 AM 45.0 °F 41.2 °F 39.0 °F 80% 30.35 in 10.0 mi WSW 6.9 mph - N/A   Clear
6:52 AM 46.0 °F 41.9 °F 39.9 °F 79% 30.34 in 10.0 mi WSW 8.1 mph - N/A   Clear
7:24 AM 46.4 °F 42.9 °F 41.0 °F 81% 30.34 in 10.0 mi WSW 6.9 mph - N/A   Clear
7:52 AM 48.0 °F - 41.0 °F 77% 30.35 in 10.0 mi West 8.1 mph - N/A   Clear
8:52 AM 50.0 °F - 41.0 °F 71% 30.34 in 10.0 mi WSW 8.1 mph - N/A   Clear
9:52 AM 51.8 °F - 41.0 °F 67% 30.32 in 10.0 mi SW 9.2 mph - N/A   Clear
10:52 AM 54.0 °F - 41.0 °F 62% 30.32 in 10.0 mi WSW 8.1 mph - N/A   Clear
11:52 AM 55.9 °F - 42.1 °F 60% 30.30 in 10.0 mi SW 10.4 mph - N/A   Clear
12:52 PM 57.9 °F - 43.0 °F 58% 30.27 in 10.0 mi SSW 11.5 mph - N/A   Clear
1:52 PM 59.0 °F - 42.1 °F 53% 30.27 in 10.0 mi SW 9.2 mph - N/A   Clear
2:52 PM 59.0 °F - 43.0 °F 55% 30.25 in 10.0 mi SW 9.2 mph - N/A   Clear
3:52 PM 59.0 °F - 44.1 °F 58% 30.24 in 10.0 mi SW 6.9 mph - N/A   Clear
4:52 PM 55.9 °F - 45.0 °F 67% 30.25 in 10.0 mi Calm Calm - N/A   Clear
5:52 PM 55.0 °F - 46.0 °F 72% 30.25 in 10.0 mi SSW 5.8 mph - N/A   Clear
6:52 PM 55.0 °F - 48.0 °F 77% 30.26 in 10.0 mi SSW 5.8 mph - N/A   Clear
7:52 PM 54.0 °F - 46.9 °F 77% 30.27 in 10.0 mi SSW 4.6 mph - N/A   Clear
8:52 PM 52.0 °F - 46.0 °F 80% 30.26 in 10.0 mi Calm Calm - N/A   Clear
9:52 PM 48.9 °F - 46.0 °F 90% 30.26 in 6.0 mi Calm Calm - N/A   Clear
10:52 PM 46.4 °F - 44.6 °F 93% 30.25 in 8.0 mi Calm Calm - N/A   Clear
11:52 PM 46.9 °F - 43.0 °F 86% 30.25 in 7.0 mi Calm Calm - N/A   Clear